Time,TemperatureF,DewpointF,PressureIn,WindDirection,WindDirectionDegrees,WindSpeedMPH,WindSpeedGustMPH,Humidity,HourlyPrecipIn,Conditions,Clouds,dailyrainin,SoftwareType,DateUTC
2013-01-28 00:03:00,53.8,51.2,29.85,ESE,113,1.8,1.8,91,0.00,,,0.00,WUHU216HW,2013-01-28 06:03:00,
2013-01-28 00:08:00,54.0,51.4,29.85,ESE,113,1.3,2.5,91,0.00,,,0.00,WUHU216HW,2013-01-28 06:08:00,
2013-01-28 00:13:00,54.0,51.7,29.84,SSE,158,1.2,2.5,92,0.00,,,0.00,WUHU216HW,2013-01-28 06:13:00,
2013-01-28 00:18:00,54.4,51.8,29.84,SSE,158,3.1,3.1,91,0.00,,,0.00,WUHU216HW,2013-01-28 06:18:00,
2013-01-28 00:23:00,54.4,51.8,29.84,SE,133,1.0,3.1,91,0.00,,,0.00,WUHU216HW,2013-01-28 06:23:00,
2013-01-28 00:28:00,54.5,51.9,29.84,East,96,1.0,2.9,91,0.00,,,0.00,WUHU216HW,2013-01-28 06:28:00,
2013-01-28 00:33:00,54.7,52.1,29.84,ESE,119,0.6,2.9,91,0.00,,,0.00,WUHU216HW,2013-01-28 06:33:00,
2013-01-28 00:38:00,54.7,52.1,29.84,SE,141,0.6,2.9,91,0.00,,,0.00,WUHU216HW,2013-01-28 06:38:00,
2013-01-28 00:43:00,54.7,52.1,29.84,SE,135,1.1,2.2,91,0.00,,,0.00,WUHU216HW,2013-01-28 06:43:00,
2013-01-28 00:48:00,54.9,52.3,29.84,ESE,113,1.2,1.3,91,0.00,,,0.00,WUHU216HW,2013-01-28 06:48:00,
2013-01-28 00:53:00,54.9,52.3,29.84,SE,135,1.3,1.8,91,0.00,,,0.00,WUHU216HW,2013-01-28 06:53:00,
2013-01-28 00:58:00,55.1,52.5,29.84,SE,138,2.9,4.9,91,0.00,,,0.00,WUHU216HW,2013-01-28 06:58:00,
2013-01-28 01:03:00,55.1,52.5,29.83,ESE,120,0.3,4.9,91,0.00,,,0.00,WUHU216HW,2013-01-28 07:03:00,
2013-01-28 01:08:00,55.1,52.5,29.84,SE,135,1.8,1.8,91,0.00,,,0.00,WUHU216HW,2013-01-28 07:08:00,
2013-01-28 01:13:00,55.1,52.5,29.84,ESE,113,2.2,2.2,91,0.00,,,0.00,WUHU216HW,2013-01-28 07:13:00,
2013-01-28 01:18:00,55.1,52.5,29.83,ESE,113,1.1,2.5,91,0.00,,,0.00,WUHU216HW,2013-01-28 07:18:00,
2013-01-28 01:23:00,55.1,52.5,29.84,SSE,158,1.3,2.5,91,0.00,,,0.00,WUHU216HW,2013-01-28 07:23:00,
2013-01-28 01:28:00,55.1,52.5,29.84,SE,135,1.8,2.7,91,0.00,,,0.00,WUHU216HW,2013-01-28 07:28:00,
2013-01-28 01:33:00,55.4,52.8,29.84,SE,135,1.1,3.6,91,0.00,,,0.00,WUHU216HW,2013-01-28 07:33:00,
2013-01-28 01:38:00,55.8,53.2,29.84,SE,135,0.9,3.6,91,0.00,,,0.00,WUHU216HW,2013-01-28 07:38:00,
2013-01-28 01:43:00,56.0,53.4,29.84,SSE,149,0.6,4.3,91,0.00,,,0.00,WUHU216HW,2013-01-28 07:43:00,
2013-01-28 01:48:00,56.2,53.3,29.84,ESE,113,1.8,4.3,90,0.00,,,0.00,WUHU216HW,2013-01-28 07:48:00,
2013-01-28 01:53:00,56.3,53.5,29.84,ESE,123,2.0,2.9,90,0.00,,,0.00,WUHU216HW,2013-01-28 07:53:00,
2013-01-28 01:58:00,56.5,53.3,29.84,ESE,113,1.1,3.6,89,0.00,,,0.00,WUHU216HW,2013-01-28 07:58:00,
2013-01-28 02:03:00,56.9,53.6,29.84,ESE,113,1.8,4.3,89,0.00,,,0.00,WUHU216HW,2013-01-28 08:03:00,
2013-01-28 02:08:00,56.9,53.6,29.84,SE,135,2.3,4.3,89,0.00,,,0.00,WUHU216HW,2013-01-28 08:08:00,
2013-01-28 02:13:00,57.1,53.8,29.83,SE,129,1.5,3.8,89,0.00,,,0.00,WUHU216HW,2013-01-28 08:13:00,
2013-01-28 02:18:00,57.1,53.8,29.83,SE,135,1.8,3.4,89,0.00,,,0.00,WUHU216HW,2013-01-28 08:18:00,
2013-01-28 02:23:00,57.2,54.0,29.83,SE,128,2.5,3.4,89,0.00,,,0.00,WUHU216HW,2013-01-28 08:23:00,
2013-01-28 02:28:00,57.2,54.0,29.83,SE,129,2.6,3.6,89,0.00,,,0.00,WUHU216HW,2013-01-28 08:28:00,
2013-01-28 02:33:00,57.2,54.0,29.83,SSE,158,2.5,4.7,89,0.00,,,0.00,WUHU216HW,2013-01-28 08:33:00,
2013-01-28 02:38:00,57.4,54.2,29.83,SE,135,3.1,4.7,89,0.00,,,0.00,WUHU216HW,2013-01-28 08:38:00,
2013-01-28 02:43:00,57.6,54.4,29.84,ESE,113,1.8,4.0,89,0.00,,,0.00,WUHU216HW,2013-01-28 08:43:00,
2013-01-28 02:48:00,57.8,54.5,29.84,SE,135,2.0,4.0,89,0.00,,,0.00,WUHU216HW,2013-01-28 08:48:00,
2013-01-28 02:53:00,58.0,54.7,29.84,SE,135,4.3,4.3,89,0.00,,,0.00,WUHU216HW,2013-01-28 08:53:00,
2013-01-28 02:58:00,58.1,54.9,29.84,SE,135,2.5,4.3,89,0.00,,,0.00,WUHU216HW,2013-01-28 08:58:00,
2013-01-28 03:03:00,58.1,54.6,29.84,SE,136,1.7,2.7,88,0.00,,,0.00,WUHU216HW,2013-01-28 09:03:00,
2013-01-28 03:08:00,58.3,55.1,29.83,SE,135,2.5,3.1,89,0.00,,,0.00,WUHU216HW,2013-01-28 09:08:00,
2013-01-28 03:13:00,58.5,55.3,29.83,East,90,2.9,3.1,89,0.00,,,0.00,WUHU216HW,2013-01-28 09:13:00,
2013-01-28 03:18:00,58.7,55.4,29.83,SSE,148,1.8,2.9,89,0.00,,,0.00,WUHU216HW,2013-01-28 09:18:00,
2013-01-28 03:23:00,58.7,55.4,29.83,SSW,203,1.8,2.9,89,0.00,,,0.00,WUHU216HW,2013-01-28 09:23:00,
2013-01-28 03:28:00,58.7,55.4,29.83,ESE,122,1.8,2.5,89,0.00,,,0.00,WUHU216HW,2013-01-28 09:28:00,
2013-01-28 03:33:00,58.7,55.8,29.83,ESE,113,2.2,2.5,90,0.00,,,0.00,WUHU216HW,2013-01-28 09:33:00,
2013-01-28 03:38:00,58.7,55.4,29.83,ESE,113,1.1,2.5,89,0.00,,,0.00,WUHU216HW,2013-01-28 09:38:00,
2013-01-28 03:43:00,58.7,55.8,29.83,SE,135,2.5,2.9,90,0.00,,,0.00,WUHU216HW,2013-01-28 09:43:00,
2013-01-28 03:48:00,59.0,55.8,29.83,SE,139,2.7,3.6,89,0.00,,,0.00,WUHU216HW,2013-01-28 09:48:00,
2013-01-28 03:53:00,59.0,55.8,29.83,South,180,2.2,3.6,89,0.00,,,0.00,WUHU216HW,2013-01-28 09:53:00,
2013-01-28 03:58:00,59.2,56.0,29.83,SSE,158,2.7,2.7,89,0.00,,,0.00,WUHU216HW,2013-01-28 09:58:00,
2013-01-28 04:03:00,59.4,56.2,29.83,SSE,158,2.9,3.1,89,0.00,,,0.00,WUHU216HW,2013-01-28 10:03:00,
2013-01-28 04:08:00,59.4,56.2,29.83,SSE,165,2.3,3.4,89,0.00,,,0.00,WUHU216HW,2013-01-28 10:08:00,
2013-01-28 04:13:00,59.6,56.3,29.83,SSE,158,3.6,5.4,89,0.00,,,0.00,WUHU216HW,2013-01-28 10:13:00,
2013-01-28 04:18:00,59.8,56.5,29.83,SE,135,2.0,5.4,89,0.00,,,0.00,WUHU216HW,2013-01-28 10:18:00,
2013-01-28 04:23:00,59.8,56.5,29.83,SSE,158,1.8,4.3,89,0.00,,,0.00,WUHU216HW,2013-01-28 10:23:00,
2013-01-28 04:28:00,59.9,56.7,29.83,SE,135,2.9,4.3,89,0.00,,,0.00,WUHU216HW,2013-01-28 10:28:00,
2013-01-28 04:33:00,59.9,56.7,29.83,SSE,159,1.2,2.9,89,0.00,,,0.00,WUHU216HW,2013-01-28 10:33:00,
2013-01-28 04:38:00,60.1,56.9,29.83,SE,135,2.2,2.5,89,0.00,,,0.00,WUHU216HW,2013-01-28 10:38:00,
2013-01-28 04:43:00,60.1,56.9,29.83,SSE,158,2.9,2.9,89,0.00,,,0.00,WUHU216HW,2013-01-28 10:43:00,
2013-01-28 04:48:00,60.3,56.8,29.82,SE,146,1.7,2.9,88,0.00,,,0.00,WUHU216HW,2013-01-28 10:48:00,
2013-01-28 04:53:00,60.5,57.0,29.83,South,177,2.0,2.9,88,0.00,,,0.00,WUHU216HW,2013-01-28 10:53:00,
2013-01-28 04:58:00,60.5,57.0,29.83,SSW,192,2.3,2.9,88,0.00,,,0.00,WUHU216HW,2013-01-28 10:58:00,
2013-01-28 05:03:00,60.7,57.2,29.83,ESE,113,3.1,3.6,88,0.00,,,0.00,WUHU216HW,2013-01-28 11:03:00,
2013-01-28 05:08:00,60.7,57.2,29.83,SSE,148,1.8,3.6,88,0.00,,,0.00,WUHU216HW,2013-01-28 11:08:00,
2013-01-28 05:13:00,60.7,57.2,29.83,SSW,200,2.0,3.4,88,0.00,,,0.00,WUHU216HW,2013-01-28 11:13:00,
2013-01-28 05:18:00,60.7,57.2,29.83,South,177,1.0,3.1,88,0.00,,,0.00,WUHU216HW,2013-01-28 11:18:00,
2013-01-28 05:23:00,60.7,57.2,29.83,SE,135,1.1,3.1,88,0.00,,,0.00,WUHU216HW,2013-01-28 11:23:00,
2013-01-28 05:28:00,60.7,57.2,29.83,SSW,203,2.9,2.9,88,0.00,,,0.00,WUHU216HW,2013-01-28 11:28:00,
2013-01-28 05:33:00,60.8,57.3,29.83,ESE,113,1.8,2.9,88,0.00,,,0.00,WUHU216HW,2013-01-28 11:33:00,
2013-01-28 05:38:00,60.8,57.3,29.83,ESE,107,1.9,2.5,88,0.00,,,0.00,WUHU216HW,2013-01-28 11:38:00,
2013-01-28 05:43:00,61.0,57.5,29.83,SSE,159,1.2,6.5,88,0.00,,,0.00,WUHU216HW,2013-01-28 11:43:00,
2013-01-28 05:48:00,61.2,57.7,29.83,SE,144,3.2,6.5,88,0.00,,,0.00,WUHU216HW,2013-01-28 11:48:00,
2013-01-28 05:53:00,61.2,57.3,29.83,SE,128,1.8,3.8,87,0.00,,,0.00,WUHU216HW,2013-01-28 11:53:00,
2013-01-28 05:58:00,61.4,57.5,29.83,SSE,160,1.8,2.9,87,0.00,,,0.00,WUHU216HW,2013-01-28 11:58:00,
2013-01-28 06:03:00,61.4,57.5,29.83,South,180,4.7,4.7,87,0.00,,,0.00,WUHU216HW,2013-01-28 12:03:00,
2013-01-28 06:08:00,61.6,57.7,29.83,SSE,148,0.8,4.7,87,0.00,,,0.00,WUHU216HW,2013-01-28 12:08:00,
2013-01-28 06:13:00,61.6,57.7,29.83,SE,143,1.5,2.9,87,0.00,,,0.00,WUHU216HW,2013-01-28 12:13:00,
2013-01-28 06:18:00,61.6,57.7,29.83,SE,128,1.7,4.0,87,0.00,,,0.00,WUHU216HW,2013-01-28 12:18:00,
2013-01-28 06:23:00,61.6,57.7,29.83,ESE,109,2.2,4.0,87,0.00,,,0.00,WUHU216HW,2013-01-28 12:23:00,
2013-01-28 06:28:00,61.7,57.9,29.83,South,180,4.0,4.0,87,0.00,,,0.00,WUHU216HW,2013-01-28 12:28:00,
2013-01-28 06:33:00,61.9,58.1,29.83,SE,146,2.6,4.7,87,0.00,,,0.00,WUHU216HW,2013-01-28 12:33:00,
2013-01-28 06:38:00,61.9,58.1,29.83,ESE,107,3.3,4.7,87,0.00,,,0.00,WUHU216HW,2013-01-28 12:38:00,
2013-01-28 06:43:00,61.9,58.1,29.83,SSE,158,3.6,4.0,87,0.00,,,0.00,WUHU216HW,2013-01-28 12:43:00,
2013-01-28 06:48:00,62.1,58.2,29.83,South,180,3.1,4.0,87,0.00,,,0.00,WUHU216HW,2013-01-28 12:48:00,
2013-01-28 06:53:00,62.3,58.4,29.83,South,180,2.7,4.0,87,0.00,,,0.00,WUHU216HW,2013-01-28 12:53:00,
2013-01-28 06:58:00,62.3,58.4,29.84,SSE,158,4.9,4.9,87,0.00,,,0.00,WUHU216HW,2013-01-28 12:58:00,
2013-01-28 07:03:00,62.3,58.4,29.84,SSE,158,2.7,4.9,87,0.00,,,0.00,WUHU216HW,2013-01-28 13:03:00,
2013-01-28 07:08:00,62.3,58.4,29.84,SSE,158,3.3,4.5,87,0.00,,,0.00,WUHU216HW,2013-01-28 13:08:00,
2013-01-28 07:13:00,62.5,58.6,29.84,SE,135,2.5,4.5,87,0.00,,,0.00,WUHU216HW,2013-01-28 13:13:00,
2013-01-28 07:18:00,62.6,58.4,29.84,SE,128,2.0,3.1,86,0.00,,,0.00,WUHU216HW,2013-01-28 13:18:00,
2013-01-28 07:23:00,62.6,58.4,29.84,ESE,113,1.1,3.4,86,0.00,,,0.00,WUHU216HW,2013-01-28 13:23:00,
2013-01-28 07:28:00,62.6,58.4,29.85,SSE,147,1.4,3.4,86,0.00,,,0.00,WUHU216HW,2013-01-28 13:28:00,
2013-01-28 07:33:00,62.6,58.4,29.85,SSE,153,1.6,3.1,86,0.00,,,0.00,WUHU216HW,2013-01-28 13:33:00,
2013-01-28 07:38:00,62.8,58.6,29.85,SE,142,1.7,3.4,86,0.00,,,0.00,WUHU216HW,2013-01-28 13:38:00,
2013-01-28 07:43:00,62.8,58.6,29.85,ESE,116,3.3,5.4,86,0.00,,,0.00,WUHU216HW,2013-01-28 13:43:00,
2013-01-28 07:48:00,62.8,58.6,29.85,SSE,150,3.0,5.4,86,0.00,,,0.00,WUHU216HW,2013-01-28 13:48:00,
2013-01-28 07:53:00,63.0,58.8,29.85,SE,135,1.8,4.0,86,0.00,,,0.00,WUHU216HW,2013-01-28 13:53:00,
2013-01-28 07:58:00,63.0,58.8,29.85,ESE,113,2.7,3.6,86,0.00,,,0.00,WUHU216HW,2013-01-28 13:58:00,
2013-01-28 08:03:00,63.2,59.0,29.85,South,180,3.4,3.6,86,0.00,,,0.00,WUHU216HW,2013-01-28 14:03:00,
2013-01-28 08:08:00,63.4,58.8,29.85,SSW,203,4.0,4.0,85,0.00,,,0.00,WUHU216HW,2013-01-28 14:08:00,
2013-01-28 08:13:00,63.4,58.8,29.85,ESE,113,2.7,4.0,85,0.00,,,0.00,WUHU216HW,2013-01-28 14:13:00,
2013-01-28 08:18:00,63.5,59.0,29.85,ENE,68,3.4,4.0,85,0.00,,,0.00,WUHU216HW,2013-01-28 14:18:00,
2013-01-28 08:23:00,63.7,59.1,29.85,ESE,121,2.3,4.0,85,0.00,,,0.00,WUHU216HW,2013-01-28 14:23:00,
2013-01-28 08:28:00,63.7,59.1,29.86,SE,138,1.8,4.0,85,0.00,,,0.00,WUHU216HW,2013-01-28 14:28:00,
2013-01-28 08:33:00,63.9,59.3,29.86,SE,135,2.2,3.4,85,0.00,,,0.00,WUHU216HW,2013-01-28 14:33:00,
2013-01-28 08:38:00,64.1,59.1,29.86,WSW,248,4.0,4.0,84,0.00,,,0.00,WUHU216HW,2013-01-28 14:38:00,
2013-01-28 08:43:00,64.1,59.1,29.86,SSW,203,0.9,5.6,84,0.00,,,0.00,WUHU216HW,2013-01-28 14:43:00,
2013-01-28 08:48:00,64.3,59.3,29.86,South,176,2.3,5.6,84,0.00,,,0.00,WUHU216HW,2013-01-28 14:48:00,
2013-01-28 08:53:00,64.3,59.3,29.86,SSW,203,4.0,5.4,84,0.00,,,0.00,WUHU216HW,2013-01-28 14:53:00,
2013-01-28 08:58:00,64.4,59.5,29.86,SSE,148,1.5,4.3,84,0.00,,,0.00,WUHU216HW,2013-01-28 14:58:00,
2013-01-28 09:03:00,64.6,59.3,29.86,SSW,206,1.9,4.7,83,0.00,,,0.00,WUHU216HW,2013-01-28 15:03:00,
2013-01-28 09:08:00,64.8,59.9,29.86,SE,144,2.1,4.7,84,0.00,,,0.00,WUHU216HW,2013-01-28 15:08:00,
2013-01-28 09:13:00,64.8,59.9,29.86,SSE,156,1.7,3.4,84,0.00,,,0.00,WUHU216HW,2013-01-28 15:13:00,
2013-01-28 09:18:00,64.8,59.9,29.86,SSE,147,1.2,3.4,84,0.00,,,0.00,WUHU216HW,2013-01-28 15:18:00,
2013-01-28 09:23:00,65.0,60.0,29.86,SE,135,2.7,3.8,84,0.00,,,0.00,WUHU216HW,2013-01-28 15:23:00,
2013-01-28 09:28:00,65.0,60.0,29.86,South,180,2.9,4.3,84,0.00,,,0.00,WUHU216HW,2013-01-28 15:28:00,
2013-01-28 09:33:00,65.2,60.2,29.86,SSE,158,1.1,4.3,84,0.00,,,0.00,WUHU216HW,2013-01-28 15:33:00,
2013-01-28 09:38:00,65.2,60.2,29.86,South,188,1.7,3.4,84,0.00,,,0.00,WUHU216HW,2013-01-28 15:38:00,
2013-01-28 09:43:00,65.3,60.0,29.86,South,180,1.8,3.1,83,0.00,,,0.00,WUHU216HW,2013-01-28 15:43:00,
2013-01-28 09:48:00,65.3,60.0,29.86,SSE,158,2.6,3.4,83,0.00,,,0.00,WUHU216HW,2013-01-28 15:48:00,
2013-01-28 09:53:00,65.5,60.2,29.86,SSE,165,1.9,5.6,83,0.00,,,0.00,WUHU216HW,2013-01-28 15:53:00,
2013-01-28 09:58:00,65.5,60.2,29.86,SSW,203,3.4,5.6,83,0.00,,,0.00,WUHU216HW,2013-01-28 15:58:00,
2013-01-28 10:03:00,65.9,60.2,29.86,SSE,155,2.8,3.4,82,0.00,,,0.00,WUHU216HW,2013-01-28 16:03:00,
2013-01-28 10:08:00,66.1,60.4,29.86,SW,225,2.2,6.3,82,0.00,,,0.00,WUHU216HW,2013-01-28 16:08:00,
2013-01-28 10:13:00,66.2,60.6,29.86,SSW,203,4.7,6.3,82,0.00,,,0.00,WUHU216HW,2013-01-28 16:13:00,
2013-01-28 10:18:00,66.2,60.6,29.86,SW,225,2.5,4.7,82,0.00,,,0.00,WUHU216HW,2013-01-28 16:18:00,
2013-01-28 10:23:00,66.6,60.7,29.86,South,171,4.3,5.1,81,0.00,,,0.00,WUHU216HW,2013-01-28 16:23:00,
2013-01-28 10:28:00,67.0,60.7,29.86,South,180,3.4,5.1,80,0.00,,,0.00,WUHU216HW,2013-01-28 16:28:00,
2013-01-28 10:33:00,67.5,60.9,29.86,SSW,203,3.1,7.2,79,0.00,,,0.00,WUHU216HW,2013-01-28 16:33:00,
2013-01-28 10:38:00,68.0,61.0,29.86,SW,225,6.9,7.2,78,0.00,,,0.00,WUHU216HW,2013-01-28 16:38:00,
2013-01-28 10:43:00,68.0,61.0,29.86,SSW,203,9.2,9.2,78,0.00,,,0.00,WUHU216HW,2013-01-28 16:43:00,
2013-01-28 10:48:00,68.2,61.1,29.86,SW,225,5.8,9.2,78,0.00,,,0.00,WUHU216HW,2013-01-28 16:48:00,
2013-01-28 10:53:00,68.4,60.9,29.86,ESE,113,4.9,5.8,77,0.00,,,0.00,WUHU216HW,2013-01-28 16:53:00,
2013-01-28 10:58:00,68.6,60.8,29.86,SE,135,5.8,5.8,76,0.00,,,0.00,WUHU216HW,2013-01-28 16:58:00,
2013-01-28 11:03:00,68.6,60.8,29.86,SSE,158,11.9,11.9,76,0.00,,,0.00,WUHU216HW,2013-01-28 17:03:00,
2013-01-28 11:08:00,68.8,60.8,29.86,South,178,3.7,11.9,76,0.00,,,0.00,WUHU216HW,2013-01-28 17:08:00,
2013-01-28 11:13:00,69.1,61.2,29.86,SW,217,5.9,11.2,76,0.00,,,0.00,WUHU216HW,2013-01-28 17:13:00,
2013-01-28 11:18:00,69.8,61.5,29.86,SSW,203,8.5,10.3,75,0.00,,,0.00,WUHU216HW,2013-01-28 17:18:00,
2013-01-28 11:23:00,69.8,61.1,29.86,SSW,203,8.1,13.4,74,0.00,,,0.00,WUHU216HW,2013-01-28 17:23:00,
2013-01-28 11:28:00,69.8,61.1,29.86,SW,215,8.1,13.4,74,0.00,,,0.00,WUHU216HW,2013-01-28 17:28:00,
2013-01-28 11:33:00,70.7,61.2,29.85,ESE,121,3.6,12.3,72,0.00,,,0.00,WUHU216HW,2013-01-28 17:33:00,
2013-01-28 11:38:00,71.3,61.4,29.86,SSW,203,8.7,12.3,71,0.00,,,0.00,WUHU216HW,2013-01-28 17:38:00,
2013-01-28 11:43:00,71.6,61.4,29.85,SSW,203,6.0,8.7,70,0.00,,,0.00,WUHU216HW,2013-01-28 17:43:00,
2013-01-28 11:48:00,71.6,61.4,29.85,South,185,3.3,8.9,70,0.00,,,0.00,WUHU216HW,2013-01-28 17:48:00,
2013-01-28 11:53:00,71.6,60.9,29.85,SSW,203,5.4,9.8,69,0.00,,,0.00,WUHU216HW,2013-01-28 17:53:00,
2013-01-28 11:58:00,71.6,60.9,29.85,SSW,203,5.4,9.8,69,0.00,,,0.00,WUHU216HW,2013-01-28 17:58:00,
2013-01-28 12:03:00,71.3,61.0,29.85,SW,225,5.1,5.1,70,0.00,,,0.00,WUHU216HW,2013-01-28 18:03:00,
2013-01-28 12:08:00,71.3,61.0,29.85,SW,225,5.1,5.1,70,0.00,,,0.00,WUHU216HW,2013-01-28 18:08:00,
2013-01-28 12:30:00,71.3,60.1,29.83,SW,225,7.6,7.6,68,0.00,,,0.00,WUHU216HW,2013-01-28 18:30:00,
2013-01-28 12:35:00,71.3,60.1,29.83,SW,225,7.6,7.6,68,0.00,,,0.00,WUHU216HW,2013-01-28 18:35:00,
2013-01-28 13:00:00,72.4,60.3,29.82,SW,225,7.6,7.6,66,0.00,,,0.00,WUHU216HW,2013-01-28 19:00:00,
2013-01-28 13:05:00,72.4,60.3,29.82,SW,225,7.6,7.6,66,0.00,,,0.00,WUHU216HW,2013-01-28 19:05:00,
2013-01-28 13:30:00,73.4,60.5,29.81,SSW,203,5.6,5.6,64,0.00,,,0.00,WUHU216HW,2013-01-28 19:30:00,
2013-01-28 13:35:00,73.4,60.5,29.81,SSW,203,5.6,5.6,64,0.00,,,0.00,WUHU216HW,2013-01-28 19:35:00,
2013-01-28 14:00:00,74.0,60.1,29.79,SSW,203,6.5,6.5,62,0.00,,,0.00,WUHU216HW,2013-01-28 20:00:00,
2013-01-28 14:05:00,74.0,60.1,29.79,SSW,203,6.5,6.5,62,0.00,,,0.00,WUHU216HW,2013-01-28 20:05:00,
2013-01-28 14:30:00,73.8,60.0,29.79,SSW,203,3.8,3.8,62,0.00,,,0.00,WUHU216HW,2013-01-28 20:30:00,
2013-01-28 14:35:00,73.8,60.0,29.79,SSW,203,3.8,3.8,62,0.00,,,0.00,WUHU216HW,2013-01-28 20:35:00,
2013-01-28 15:00:00,74.0,59.7,29.78,West,270,6.0,6.0,61,0.00,,,0.00,WUHU216HW,2013-01-28 21:00:00,
2013-01-28 15:04:00,74.0,59.7,29.78,West,270,6.0,6.0,61,0.00,,,0.00,WUHU216HW,2013-01-28 21:04:00,
2013-01-28 15:30:00,73.8,59.0,29.78,SSW,203,6.9,6.9,60,0.00,,,0.00,WUHU216HW,2013-01-28 21:30:00,
2013-01-28 15:35:00,73.8,59.0,29.78,SSW,203,6.9,6.9,60,0.00,,,0.00,WUHU216HW,2013-01-28 21:35:00,
2013-01-28 15:40:00,73.8,59.0,29.78,SSW,203,6.9,6.9,60,0.00,,,0.00,WUHU216HW,2013-01-28 21:40:00,
2013-01-28 16:00:00,73.3,59.0,29.79,SE,135,4.5,4.5,61,0.00,,,0.00,WUHU216HW,2013-01-28 22:00:00,
2013-01-28 16:05:00,73.3,59.0,29.79,SE,135,4.5,4.5,61,0.00,,,0.00,WUHU216HW,2013-01-28 22:05:00,
2013-01-28 16:30:00,71.6,59.2,29.78,SE,135,4.0,4.0,65,0.00,,,0.00,WUHU216HW,2013-01-28 22:30:00,
2013-01-28 16:35:00,71.6,59.2,29.78,SE,135,4.0,4.0,65,0.00,,,0.00,WUHU216HW,2013-01-28 22:35:00,
2013-01-28 17:00:00,70.6,58.6,29.77,ESE,113,1.3,1.3,66,0.00,,,0.00,WUHU216HW,2013-01-28 23:00:00,
2013-01-28 17:05:00,70.6,58.6,29.77,ESE,113,1.3,1.3,66,0.00,,,0.00,WUHU216HW,2013-01-28 23:05:00,
2013-01-28 17:30:00,69.1,58.1,29.77,South,180,2.2,2.2,68,0.00,,,0.00,WUHU216HW,2013-01-28 23:30:00,
2013-01-28 17:35:00,69.1,58.1,29.77,South,180,2.2,2.2,68,0.00,,,0.00,WUHU216HW,2013-01-28 23:35:00,
2013-01-28 18:00:00,68.0,58.0,29.77,SE,135,1.8,1.8,70,0.00,,,0.00,WUHU216HW,2013-01-29 00:00:00,
2013-01-28 18:05:00,68.0,58.0,29.77,SE,135,1.8,1.8,70,0.00,,,0.00,WUHU216HW,2013-01-29 00:05:00,
2013-01-28 18:30:00,67.1,57.8,29.77,ESE,113,1.1,1.1,72,0.00,,,0.00,WUHU216HW,2013-01-29 00:30:00,
2013-01-28 18:35:00,67.1,57.8,29.77,ESE,113,1.1,1.1,72,0.00,,,0.00,WUHU216HW,2013-01-29 00:35:00,
2013-01-28 19:00:00,66.4,58.2,29.77,SSE,158,2.5,2.5,75,0.00,,,0.00,WUHU216HW,2013-01-29 01:00:00,
2013-01-28 19:05:00,66.4,58.2,29.77,SSE,158,2.5,2.5,75,0.00,,,0.00,WUHU216HW,2013-01-29 01:05:00,
2013-01-28 19:30:00,66.6,58.4,29.78,SSE,158,1.8,1.8,75,0.00,,,0.00,WUHU216HW,2013-01-29 01:30:00,
2013-01-28 19:35:00,66.6,58.4,29.78,SSE,158,1.8,1.8,75,0.00,,,0.00,WUHU216HW,2013-01-29 01:35:00,
2013-01-28 20:00:00,66.6,58.8,29.78,South,180,3.4,3.4,76,0.00,,,0.00,WUHU216HW,2013-01-29 02:00:00,
2013-01-28 20:05:00,66.6,58.8,29.78,South,180,3.4,3.4,76,0.00,,,0.00,WUHU216HW,2013-01-29 02:05:00,
2013-01-28 20:30:00,66.2,58.8,29.77,SE,135,1.3,1.3,77,0.00,,,0.00,WUHU216HW,2013-01-29 02:30:00,
2013-01-28 20:35:00,66.2,58.8,29.77,SE,135,1.3,1.3,77,0.00,,,0.00,WUHU216HW,2013-01-29 02:35:00,
2013-01-28 21:00:00,66.1,59.4,29.76,SSE,158,4.0,4.0,79,0.00,,,0.00,WUHU216HW,2013-01-29 03:00:00,
2013-01-28 21:05:00,66.1,59.4,29.76,SSE,158,4.0,4.0,79,0.00,,,0.00,WUHU216HW,2013-01-29 03:05:00,
2013-01-28 21:30:00,65.9,59.6,29.76,SE,135,2.7,2.7,80,0.00,,,0.00,WUHU216HW,2013-01-29 03:30:00,
2013-01-28 21:35:00,65.9,59.6,29.76,SE,135,2.7,2.7,80,0.00,,,0.00,WUHU216HW,2013-01-29 03:35:00,
2013-01-28 22:00:00,65.7,59.4,29.75,SE,135,4.0,4.0,80,0.00,,,0.00,WUHU216HW,2013-01-29 04:00:00,
2013-01-28 22:04:00,65.7,59.4,29.75,SE,135,4.0,4.0,80,0.00,,,0.00,WUHU216HW,2013-01-29 04:04:00,
2013-01-28 22:30:00,65.2,59.5,29.74,SE,135,5.4,5.4,82,0.00,,,0.00,WUHU216HW,2013-01-29 04:30:00,
2013-01-28 22:35:00,65.2,59.5,29.74,SE,135,5.4,5.4,82,0.00,,,0.00,WUHU216HW,2013-01-29 04:35:00,
2013-01-28 23:00:00,65.2,59.5,29.74,SSE,158,4.3,4.3,82,0.00,,,0.00,WUHU216HW,2013-01-29 05:00:00,
2013-01-28 23:01:00,65.2,59.5,29.74,SSE,158,4.3,4.3,82,0.00,,,0.00,WUHU216HW,2013-01-29 05:01:00,
2013-01-28 23:02:00,65.2,59.5,29.74,SSE,158,4.3,4.3,82,0.00,,,0.00,WUHU216HW,2013-01-29 05:02:00,
2013-01-28 23:03:00,65.2,59.5,29.74,SSE,158,4.3,4.3,82,0.00,,,0.00,WUHU216HW,2013-01-29 05:03:00,
2013-01-28 23:08:00,65.2,59.5,29.74,SSE,158,4.3,4.3,82,0.00,,,0.00,WUHU216HW,2013-01-29 05:08:00,
2013-01-28 23:30:00,64.6,59.1,29.74,SE,135,1.1,1.1,82,0.00,,,0.00,WUHU216HW,2013-01-29 05:30:00,
2013-01-28 23:35:00,64.6,59.1,29.74,SE,135,1.1,1.1,82,0.00,,,0.00,WUHU216HW,2013-01-29 05:35:00,